Location: Gull Harbor
(47.1000°N, 122.9000°W)
Time: 02:49:45
(UTC-07:00)

Tiangong 2 - Visible Passes

Search period start: 21 May 2019 00:00
Search period end: 31 May 2019 00:00
Orbit: 379 x 387 km, 42.8° (Epoch: 21 May)

Date Brightness Start Highest point End Pass type
(mag) Time Alt. Az. Time Alt. Az. Time Alt. Az.
21 May 1.9 22:13:11 10° SW 22:15:59 30° SSE 22:17:07 23° SE visible
22 May 1.7 22:49:30 10° WSW 22:52:18 36° S 22:52:18 36° S visible
23 May 1.8 21:49:36 10° WSW 21:52:31 35° S 21:55:06 12° ESE visible
23 May 3.0 23:26:04 10° WSW 23:27:17 19° WSW 23:27:17 19° WSW visible
24 May 1.8 22:26:03 10° WSW 22:28:57 35° S 22:29:57 27° SE visible
25 May 2.6 23:02:44 10° WSW 23:04:44 22° SW 23:04:44 22° SW visible
26 May 2.1 22:02:38 10° WSW 22:05:27 30° S 22:07:17 17° SE visible
27 May 2.8 22:39:32 10° WSW 22:41:45 18° SSW 22:41:59 18° SSW visible
28 May 2.5 21:39:16 10° WSW 21:41:52 24° SSW 21:44:28 10° SE visible
29 May 3.4 22:16:41 10° SW 22:18:04 12° SSW 22:19:12 11° S visible
